Regional Weather Roundup
Issued by NWS

Home | Current Version | Previous Version | Text Only | Print | Product List | Glossary Off
Versions: 1 2 3 4 5 6 7 8 9 10 11 12 13 14 15 16 17 18 19 20 21 22 23 24 25 26 27 28 29 30 31 32 33 34 35 36 37 38 39 40 41 42 43 44 45 46 47 48 49 50

000
ASUS43 KLOT 170458
RWRIL

ILLINOIS REGIONAL WEATHER ROUNDUP
NATIONAL WEATHER SERVICE CHICAGO/ROMEOVILLE IL
1200 AM CDT THU APR 17 2014

NOTE: "FAIR" INDICATES FEW OR NO CLOUDS BELOW 12,000 FEET WITH NO
SIGNIFICANT WEATHER AND/OR OBSTRUCTIONS TO VISIBILITY.

* THESE STATIONS ARE NOT UNDER NWS QUALITY CONTROL. THEY ALSO MAY NOT
  REPORT WEATHER SUCH AS PRECIPITATION OR FOG.

ILZ001-002-007-009-015-016-024-170600-
NORTHWEST ILLINOIS

CITY           SKY/WX    TMP DP  RH WIND       PRES   REMARKS
MOLINE         CLOUDY    47  28  47 S15G22    30.01S
$$

ILZ003-004-008-010-011-017-018-170600-
NORTH CENTRAL ILLINOIS

CITY           SKY/WX    TMP DP  RH WIND       PRES   REMARKS
ROCKFORD       NOT AVBL
$$

ILZ005-006-012>014-019>023-170600-
NORTHEAST ILLINOIS

CITY           SKY/WX    TMP DP  RH WIND       PRES   REMARKS
CHICAGO-OHARE  CLOUDY    44  23  43 S15       30.16S
CHICAGO-MIDWAY MOCLDY    45  24  43 S15       30.18R
AURORA         MOCLDY    42  27  55 SE13      30.14F
WAUKEGAN       CLOUDY    41  30  65 SE13      30.15F
DUPAGE AIRPORT MOCLDY    43  26  51 S15       30.14F
WHEELING       MOCLDY    45  24  43 S13       30.17S
NORTHERLY ISL    N/A     45  25  45 SE16        N/A
$$

LMZ740>746-170600-
SOUTHERN LAKE MICHIGAN

STATION/POSITION SKY/WX   TEMP    WIND        PRES    VSBY  WAVE
                          AIR SEA DIR/SP/G                  HT/PER
                          (F)     (DEG/KT/KT) (MB)    (MI)  (FT/S)
WAUKEGAN HARBOR            40     160/ 11/ 12 1023.0R
HARRISON CRIB              44     150/ 19/ 25   N/A
BURNHAM HARBOR             45     160/ 15/ 23   N/A
CALUMET HARBOR             45     150/ 13/ 20 1022.6R
MICHIGAN CITY              44     120/ 17/ 25   N/A
$$

ILZ025>027-034>036-040-047-049-050-058-095>099-170600-
WEST-CENTRAL ILLINOIS

CITY           SKY/WX    TMP DP  RH WIND       PRES   REMARKS
QUINCY         PTCLDY    48  26  42 S13       30.04R
$$

ILZ028>032-037-038-041>044-048-051>054-059>061-170600-
CENTRAL ILLINOIS

CITY           SKY/WX    TMP DP  RH WIND       PRES   REMARKS
PEORIA         NOT AVBL
SPRINGFIELD    PTCLDY    46  30  53 S14       30.12F
TAYLORVILLE    NOT AVBL
$$

ILZ033-039-045-046-055>057-062-063-170600-
EAST-CENTRAL ILLINOIS

CITY           SKY/WX    TMP DP  RH WIND       PRES   REMARKS
CHAMPAIGN      PTCLDY    38  28  67 SE8       30.17R WCI  32
MATTOON        PTCLDY    44  27  51 S7        30.16R
$$

ILZ079-100>102-170600-
SOUTHWEST ILLINOIS

CITY           SKY/WX    TMP DP  RH WIND       PRES   REMARKS
CAHOKIA*       CLEAR     45  31  58 S5        30.15S
$$

ILZ064>066-069>071-074>076-080>082-084>086-088>090-092>094-170600-
SOUTH-CENTRAL ILLINOIS

CITY           SKY/WX    TMP DP  RH WIND       PRES   REMARKS
CARBONDALE     CLEAR     45  30  55 SE6       30.17R
$$

ILZ067-068-072-073-078-083-087-091-170600-
SOUTHEAST ILLINOIS

CITY           SKY/WX    TMP DP  RH WIND       PRES   REMARKS
$$

ABBREVIATIONS USED IN REMARKS
   TC - TEMPERATURE IN CELSIUS
  WCI - WIND CHILL INDEX
   HX - HEAT INDEX
  VSB - VISIBILITY
$$




USA.gov is the U.S. government's official web portal to all federal, state and local government web resources and services.